Location: ?????????
(54.7630°N, 39.4991°E)
Time: 11:29:07
(UTC+00:00)

Cosmos 1627 Rocket - Pass Details

Date: 14 April 2026
Orbit: 950 x 1002 km, 82.9° (Epoch: 10 May)

Event Time Altitude Azimuth Distance (km) Brightness Sun altitude
Rises 23:24:14 0° 347° (NNW) 3,661 8.2 -20.6°
Reaches altitude 10° 23:26:45 10° 345° (NNW) 2,718 7.4 -20.4°
Maximum altitude 23:32:55 68° 264° (W) 1,050 4.5 -19.9°
Enters shadow 23:36:01 31° 191° (S) 1,648 5.2 -19.7°
